Location: Capannuccia
(43.7000°N, 11.3000°E)
Time: 18:36:31
(UTC+00:00)

Cosmos 1825 - Pass Details

Date: 07 June 2020
Orbit: 504 x 507 km, 82.5° (Epoch: 11 July)

Event Time Altitude Azimuth Distance (km) Brightness Sun altitude
Exits shadow 01:55:33 16° 175° (S) 1,378 3.9 -13.9°
Maximum altitude 01:58:26 66° 96° (E) 557 2.4 -13.5°
Drops below altitude 10° 02:02:11 10° 14° (NNE) 1,726 5.9 -13.1°
Sets 02:04:19 0° 12° (NNE) 2,616 7.0 -12.9°
